This demonstration page uses our WeatherBlox Daily Observations layout. Learn more.

41.55636, -103.73856

Hourly Observations for June 10, 2020

Temp ( °F °C ) Dew Point ( °F °C ) Humidity (%) Winds ( mph kmh ) Pressure ( in mb ) Visibility ( mi km ) Precip ( " mm )
12:58 am 00:58 Clear 63 17 29 -1.8 28 28 N 18 30 29.93 1014 10 16.0934 0 0
1:58 am 01:58 Clear 58 14.5 31 -0.8 35 35 N 14 22 29.95 1014 10 16.0934 0 0
2:58 am 02:58 Clear 53 11.5 30 -1.1 42 42 NNE 12 19 29.98 1015 10 16.0934 0 0
3:58 am 03:58 Clear 52 10.9 29 -1.8 41 41 N 12 19 30.01 1016 10 16.0934 0 0
4:58 am 04:58 Clear 50 9.9 28 -2.3 43 43 N 13 20 30.04 1017 10 16.0934 0 0
5:58 am 05:58 Clear 48 9 28 -2.1 46 46 NNE 12 19 30.07 1018 10 16.0934 0 0
6:58 am 06:58 Clear 41 5 32 -0.2 69 69 SW 6 9 30.14 1021 10 16.0934 0 0
7:58 am 07:58 Clear 42 5.7 31 -0.4 65 65 SW 6 9 30.14 1021 10 16.0934 0 0
8:58 am 08:58 Clear 45 7.4 30 -1.3 54 54 WNW 8 13 30.13 1020 10 16.0934 0 0
9:58 am 09:58 Clear 41 4.9 31 -0.5 68 68 WSW 7 11 30.15 1021 10 16.0934 0 0
10:58 am 10:58 Partly Cloudy 41 4.8 31 -0.5 69 69 W 6 9 30.14 1021 10 16.0934 0 0
11:58 am 11:58 Cloudy 41 4.8 34 1 77 77 NNW 5 7 30.16 1022 10 16.0934 0 0
12:58 pm 12:58 Cloudy 46 8 36 2.3 68 68 W 5 7 30.16 1022 10 16.0934 0 0
1:58 pm 13:58 Cloudy 53 11.8 37 3 55 55 WNW 3 6 30.16 1021 10 16.0934 0 0
2:58 pm 14:58 Partly Cloudy 59 14.8 29 -1.6 33 33 W 12 19 30.15 1021 10 16.0934 0 0
3:58 pm 15:58 Sunny 61 16.2 36 2 39 39 NW 15 24 30.14 1021 10 16.0934 0 0
4:58 pm 16:58 Sunny 64 18 34 0.9 32 32 NW 12 19 30.13 1020 10 16.0934 0 0
5:58 pm 17:58 Sunny 67 19.5 34 0.9 29 29 NNW 15 24 30.13 1020 10 16.0934 0 0
6:58 pm 18:58 Mostly Sunny 68 19.9 33 0.6 28 28 NW 17 28 30.16 1021 10 16.0934 0 0
7:58 pm 19:58 Mostly Sunny 70 20.9 35 1.5 28 28 NW 18 30 30.14 1021 10 16.0934 0 0
8:58 pm 20:58 Mostly Sunny 71 21.6 34 1.1 26 26 NNW 14 22 30.11 1020 10 16.0934 0 0
9:58 pm 21:58 Mostly Sunny 72 22.2 34 0.9 24 24 WNW 12 19 30.11 1020 10 16.0934 0 0
10:58 pm 22:58 Mostly Sunny 72 22.1 35 1.4 26 26 W 7 11 30.11 1020 10 16.0934 0 0
11:58 pm 23:58 Sunny 73 22.6 34 1 24 24 NW 3 6 30.08 1019 10 16.0934 0 0

Powered by AerisWeather